Retour au catalogue

COSMOS 2251 DEB

ActifLEO
NORAD 46430·DEBRIS·🇷🇺 Russia

Lancé Jun 16, 1993 depuis Plesetsk Cosmodrome

Loading…

Prochains Passages (prochaines 24 heures)

TLE

FraisSource: Space-Track

Époque: Sep 13, 2026, 02:46 UTC

1 46430U 93036BWU 26256.11564542  .00005495  00000-0  12169-2 0  9991
2 46430  73.9123 194.2814 0089428  54.0244 306.9169 14.54936759836692

Suivez COSMOS 2251 DEB en temps réel avec AllMySat

Download on the App Store